User: anonymous   Login
Location: Kitchener
(43.4500°N, 80.5000°W)
Time: 06:12:07
(UTC-05:00)
Language:

Cosmos 1939 Rocket - Orbit

View from above orbital plane
View from above orbital plane
View from above satellite
View from above satellite

Ground track
Ground track

The orbit data is extracted from the following two-line orbital elements,

1 19046U 88032B   15060.17127156  .00002751  00000-0  21861-3 0  9999
2 19046 097.6216 114.8178 0040665 305.9590 053.7865 15.00642876446721
Epoch (UTC): 01 March 2015 04:06:37
Eccentricity: 0.0040665
inclination: 97.6216°
perigee height: 536 km
apogee height: 593 km
right ascension of ascending node: 114.8178°
argument of perigee: 305.9590°
revolutions per day: 15.00642876
mean anomaly at epoch: 53.7865°
orbit number at epoch: 44672

The dashed part of the orbit path shows where the satellite is in the earth's shadow,  

DLR